When you browse on this site, cookies collect data to enhance your experience and personalize the content and advertising you see.
Visit our Privacy Policy to learn more. By continuing to use the site, you agree to this use of cookies and data.
  • In Romania
  • List of Countries
  • For 7 days
  • Water Temperature
  • Satellite Maps
  • Weather Map
  • Weather Widgets
  • user-avatar
    Login

    Hourly Weather Krylovo

    Today, 18 June, Tuesday

    Time Temperature Precipitation Wind Pressure Humidity
    00:00 +18°C° 0 mm 1 mps 744 mmHg 76%
    01:00 +16°C° 0 mm 1 mps 744 mmHg 79%
    02:00 +16°C° 0 mm 2 mps 743 mmHg 84%
    03:00 +16°C° 0 mm 2 mps 744 mmHg 83%
    04:00 +17°C° 0 mm 2 mps 744 mmHg 81%
    05:00 +17°C° 0 mm 2 mps 744 mmHg 80%
    06:00 +19°C° 0 mm 3 mps 744 mmHg 73%
    07:00 +20°C° 0 mm 3 mps 744 mmHg 65%
    08:00 +22°C° 0 mm 3 mps 744 mmHg 58%
    09:00 +23°C° 0.2 mm 4 mps 744 mmHg 57%
    10:00 +23°C° 0.2 mm 4 mps 744 mmHg 56%
    11:00 +25°C° 0.2 mm 5 mps 744 mmHg 55%
    12:00 +25°C° 0.4 mm 5 mps 744 mmHg 54%
    13:00 +26°C° 0.4 mm 5 mps 744 mmHg 52%
    14:00 +26°C° 0.4 mm 5 mps 744 mmHg 50%
    15:00 +25°C° 0.1 mm 4 mps 744 mmHg 53%
    16:00 +25°C° 0.1 mm 4 mps 744 mmHg 55%
    17:00 +25°C° 0.1 mm 3 mps 744 mmHg 58%
    18:00 +22°C° 0 mm 3 mps 744 mmHg 65%
    19:00 +20°C° 0 mm 2 mps 744 mmHg 71%
    20:00 +18°C° 0 mm 2 mps 744 mmHg 78%
    21:00 +17°C° 0 mm 2 mps 745 mmHg 77%
    22:00 +16°C° 0 mm 2 mps 745 mmHg 76%
    23:00 +15°C° 0 mm 2 mps 745 mmHg 75%

    Tomorrow, 19 June, Wednesday

    Time Temperature Precipitation Wind Pressure Humidity
    00:00 +14°C° 0 mm 2 mps 745 mmHg 80%
    01:00 +14°C° 0 mm 2 mps 746 mmHg 84%
    02:00 +13°C° 0 mm 2 mps 746 mmHg 88%
    03:00 +14°C° 0 mm 2 mps 746 mmHg 84%
    04:00 +15°C° 0 mm 2 mps 746 mmHg 80%
    05:00 +16°C° 0 mm 2 mps 746 mmHg 76%
    06:00 +18°C° 0 mm 2 mps 746 mmHg 71%
    07:00 +19°C° 0 mm 2 mps 747 mmHg 65%
    08:00 +21°C° 0 mm 2 mps 747 mmHg 60%
    09:00 +24°C° 0 mm 3 mps 747 mmHg 54%
    10:00 +25°C° 0 mm 3 mps 747 mmHg 48%
    11:00 +27°C° 0 mm 3 mps 747 mmHg 41%
    12:00 +27°C° 0 mm 3 mps 747 mmHg 41%
    13:00 +28°C° 0 mm 3 mps 747 mmHg 40%
    14:00 +28°C° 0 mm 3 mps 747 mmHg 40%
    15:00 +28°C° 0 mm 3 mps 747 mmHg 42%
    16:00 +27°C° 0 mm 3 mps 747 mmHg 45%
    17:00 +27°C° 0 mm 2 mps 747 mmHg 48%
    18:00 +25°C° 0 mm 2 mps 747 mmHg 54%
    19:00 +23°C° 0 mm 2 mps 747 mmHg 60%
    20:00 +20°C° 0 mm 2 mps 747 mmHg 66%
    21:00 +18°C° 0 mm 2 mps 747 mmHg 68%
    22:00 +17°C° 0 mm 2 mps 747 mmHg 71%
    23:00 +16°C° 0 mm 2 mps 747 mmHg 73%

    Day after tomorrow, 20 June, Thursday

    Time Temperature Precipitation Wind Pressure Humidity
    00:00 +15°C° 0 mm 2 mps 747 mmHg 74%
    01:00 +15°C° 0 mm 1 mps 747 mmHg 75%
    02:00 +14°C° 0 mm 1 mps 747 mmHg 77%
    03:00 +15°C° 0 mm 1 mps 747 mmHg 76%
    04:00 +16°C° 0 mm 2 mps 748 mmHg 75%
    05:00 +16°C° 0 mm 2 mps 748 mmHg 74%
    06:00 +18°C° 0 mm 2 mps 748 mmHg 68%
    07:00 +20°C° 0 mm 2 mps 748 mmHg 62%
    08:00 +23°C° 0 mm 2 mps 748 mmHg 56%
    09:00 +25°C° 0 mm 2 mps 748 mmHg 51%
    10:00 +26°C° 0 mm 2 mps 748 mmHg 46%
    11:00 +27°C° 0 mm 2 mps 748 mmHg 41%
    12:00 +28°C° 0 mm 3 mps 748 mmHg 40%
    13:00 +28°C° 0 mm 3 mps 747 mmHg 39%
    14:00 +29°C° 0 mm 3 mps 747 mmHg 37%
    15:00 +28°C° 0 mm 2 mps 747 mmHg 42%
    16:00 +28°C° 0 mm 2 mps 747 mmHg 47%
    17:00 +28°C° 0 mm 1 mps 747 mmHg 52%
    18:00 +26°C° 0 mm 1 mps 747 mmHg 58%
    19:00 +24°C° 0 mm 1 mps 747 mmHg 64%
    20:00 +22°C° 0 mm 1 mps 747 mmHg 69%
    21:00 +20°C° 0 mm 2 mps 747 mmHg 70%
    22:00 +19°C° 0 mm 2 mps 747 mmHg 70%
    23:00 +19°C° 0 mm 2 mps 747 mmHg 71%

    21 June, Friday

    Time Temperature Precipitation Wind Pressure Humidity
    00:00 +18°C° 0 mm 2 mps 747 mmHg 73%
    01:00 +18°C° 0 mm 2 mps 747 mmHg 76%
    02:00 +17°C° 0 mm 2 mps 747 mmHg 79%
    03:00 +18°C° 0 mm 2 mps 747 mmHg 78%
    04:00 +18°C° 0 mm 2 mps 747 mmHg 78%
    05:00 +19°C° 0 mm 2 mps 747 mmHg 77%
    06:00 +21°C° 0 mm 2 mps 747 mmHg 71%
    07:00 +23°C° 0 mm 2 mps 747 mmHg 65%
    08:00 +25°C° 0 mm 2 mps 747 mmHg 60%
    09:00 +27°C° 0 mm 3 mps 747 mmHg 54%
    10:00 +28°C° 0 mm 3 mps 747 mmHg 49%
    11:00 +29°C° 0 mm 4 mps 747 mmHg 44%
    12:00 +29°C° 0 mm 4 mps 747 mmHg 45%
    13:00 +29°C° 0 mm 4 mps 747 mmHg 46%
    14:00 +29°C° 0 mm 3 mps 746 mmHg 47%
    15:00 +29°C° 0 mm 3 mps 746 mmHg 49%
    16:00 +28°C° 0 mm 3 mps 746 mmHg 51%
    17:00 +28°C° 0 mm 3 mps 746 mmHg 53%
    18:00 +26°C° 0 mm 3 mps 746 mmHg 61%
    19:00 +24°C° 0 mm 2 mps 746 mmHg 68%
    20:00 +21°C° 0 mm 2 mps 746 mmHg 76%
    21:00 +20°C° 0 mm 2 mps 746 mmHg 80%
    22:00 +19°C° 0 mm 2 mps 746 mmHg 84%
    23:00 +18°C° 0 mm 2 mps 746 mmHg 88%

    22 June, Saturday

    Time Temperature Precipitation Wind Pressure Humidity
    00:00 +18°C° 0 mm 2 mps 746 mmHg 91%
    01:00 +18°C° 0 mm 2 mps 746 mmHg 94%
    02:00 +17°C° 0 mm 2 mps 746 mmHg 98%
    03:00 +18°C° 0 mm 2 mps 746 mmHg 95%
    04:00 +19°C° 0 mm 2 mps 746 mmHg 92%
    05:00 +20°C° 0 mm 3 mps 746 mmHg 89%
    06:00 +21°C° 0 mm 3 mps 745 mmHg 85%
    07:00 +22°C° 0 mm 3 mps 745 mmHg 81%
    08:00 +24°C° 0 mm 3 mps 745 mmHg 77%
    09:00 +24°C° 0.1 mm 3 mps 745 mmHg 80%
    10:00 +22°C° 0.1 mm 3 mps 745 mmHg 83%
    11:00 +22°C° 0.1 mm 3 mps 744 mmHg 87%
    12:00 +24°C° 0.1 mm 3 mps 744 mmHg 80%
    13:00 +26°C° 0.1 mm 3 mps 744 mmHg 74%
    14:00 +27°C° 0.1 mm 3 mps 744 mmHg 68%
    15:00 +27°C° 0.3 mm 3 mps 743 mmHg 69%
    16:00 +27°C° 0.3 mm 4 mps 743 mmHg 70%
    17:00 +27°C° 0.3 mm 4 mps 743 mmHg 71%
    18:00 +26°C° 0.7 mm 3 mps 743 mmHg 79%
    19:00 +24°C° 0.7 mm 2 mps 743 mmHg 88%
    20:00 +21°C° 0.7 mm 2 mps 743 mmHg 96%
    21:00 +21°C° 0.2 mm 2 mps 743 mmHg 96%
    22:00 +20°C° 0.2 mm 3 mps 744 mmHg 95%
    23:00 +20°C° 0.2 mm 3 mps 744 mmHg 95%

    23 June, Sunday

    Time Temperature Precipitation Wind Pressure Humidity
    00:00 +19°C° 0 mm 3 mps 744 mmHg 94%
    01:00 +18°C° 0 mm 3 mps 745 mmHg 93%
    02:00 +16°C° 0 mm 3 mps 745 mmHg 92%
    03:00 +16°C° 0 mm 3 mps 746 mmHg 92%
    04:00 +14°C° 0 mm 3 mps 746 mmHg 91%
    05:00 +14°C° 0 mm 3 mps 747 mmHg 91%
    06:00 +16°C° 0 mm 3 mps 747 mmHg 83%
    07:00 +18°C° 0 mm 2 mps 748 mmHg 75%
    08:00 +20°C° 0 mm 2 mps 748 mmHg 68%
    09:00 +21°C° 0 mm 2 mps 748 mmHg 60%
    10:00 +24°C° 0 mm 2 mps 749 mmHg 52%
    11:00 +25°C° 0 mm 2 mps 749 mmHg 45%
    12:00 +25°C° 0 mm 2 mps 749 mmHg 43%
    13:00 +26°C° 0 mm 2 mps 749 mmHg 41%
    14:00 +26°C° 0 mm 2 mps 749 mmHg 39%
    15:00 +26°C° 0 mm 2 mps 749 mmHg 41%
    16:00 +25°C° 0 mm 2 mps 749 mmHg 43%
    17:00 +25°C° 0 mm 2 mps 749 mmHg 46%
    18:00 +23°C° 0 mm 2 mps 749 mmHg 50%
    19:00 +21°C° 0 mm 2 mps 749 mmHg 54%
    20:00 +20°C° 0 mm 1 mps 749 mmHg 58%
    21:00 +19°C° 0 mm 1 mps 749 mmHg 57%
    22:00 +19°C° 0 mm 1 mps 749 mmHg 56%
    23:00 +18°C° 0 mm 1 mps 749 mmHg 55%
    Show more